SPACEMOBILE-006

Last updated on Sun Aug 09 2026 00:02:10 GMT+0000 (Coordinated Universal Time)

1 67232U 25309A 26220.62562468 .00000353 00000+0 32068-4 0 9993 2 67232 52.9951 91.4063 0009425 298.6541 61.3505 15.18765618 34567
UTC large
Height (km)
Speed (km/s)
/
Latitude / Longitude
Inclination (degrees)
Orbital Period (minutes)
Azimuth
Elevation
Range (km)
Doppler Factor

Next 0 passes for location: London (51.5072 / 0.1276)

No passes found over London.
SPACEMOBILE-006